sat.trackr.live / text

‹ back to catalog

NVS-01 (IRNSS-1J)

NORAD 56759 · 2023-076A

PAYLOAD ACTIVE UNKNOWN

§ Identity

Operator
Country
IND
Launch date
2023-05-29
Launch site
SRILR
Launch vehicle
Mass (kg)
RCS (m²)

Purposes: comms, nav

External: N2YO · Heavens-Above · Gunter

§ Orbital elements

Epoch: 2026-09-19T22:43:10.746624Z

Period
1,436.07 min
Inclination
1.9505°
Eccentricity
0.0005801
Mean motion
1.00273981 rev/d
Perigee alt
35,761.5 km
Apogee alt
35,810.4 km
Semi-major
42,164.1 km
B*
0.0000e+0
RAAN
239.9517°
Arg perigee
0.3573°
Mean anomaly
228.8996°
Rev number
1,206

§ Raw data

NVS-01 (IRNSS-1J)1 56759U 23076A   26262.94665216 -.00000342  00000+0  00000+0 0  99952 56759   1.9505 239.9517 0005801   0.3573 228.8996  1.00273981 12066

JSON: /api/v1/satellites/56759 · /tle

For live sub-satellite position, see the globe view (requires WebGL).

§ Visibility from observer

Set your observer location to see the next 7 days of passes ≥ 10°. The values pass through the URL so the page stays shareable.

No JS? Fill the form by hand. The geolocation button needs JavaScript.